Back to catalog

THORAD DELTA 1 DEB

AliveLEO
NORAD 8562·DEBRIS·🇺🇸 United States

Launched Nov 15, 1974 from Vandenberg Space Force Base

Loading…

Next Passes (next 24 hours)

TLE

FreshSource: Space-Track

Epoch: Sep 14, 2026, 05:06 UTC

1 08562U 74089CZ  26257.21297691 -.00000017  00000-0  20614-3 0  9993
2 08562 101.6876 356.5034 0262889  39.1545 350.9795 12.15418266366098

Track THORAD DELTA 1 DEB in real time with AllMySat

Download on the App Store